This demonstration page uses our WeatherBlox Daily Observations layout. Learn more.

Left ArrowRight Arrow

39.51506, -84.39828

Hourly Observations for December 30, 2015

Temp ( °F °C ) Dew Point ( °F °C ) Humidity (%) Winds ( mph kmh ) Pressure ( in mb ) Visibility ( mi km ) Precip ( " mm )
12:15 am 00:15 Cloudy 39 4 32 0.2 77 77 N N/A 30.24 1024 10 16.0934 N/A
12:35 am 00:35 Cloudy 39 4 32 0.1 76 76 NNW 3 6 30.24 1024 10 16.0934 N/A
12:55 am 00:55 Cloudy 39 4 32 0.2 77 77 NNW 3 6 30.24 1024 10 16.0934 N/A
1:15 am 01:15 Cloudy 39 4 33 0.4 78 78 NW 3 6 30.24 1024 10 16.0934 N/A
1:35 am 01:35 Cloudy 39 4 33 0.5 78 78 W 3 6 30.27 1025 10 16.0934 N/A
1:55 am 01:55 Cloudy 39 4 33 0.5 78 78 NNW 3 6 30.27 1025 10 16.0934 N/A
2:15 am 02:15 Cloudy 39 4 32 undefined 75 75 N N/A 30.24 1024 10 16.0934 N/A
2:35 am 02:35 Cloudy 39 4 32 0.1 76 76 N N/A 30.24 1024 10 16.0934 N/A
2:55 am 02:55 Cloudy 39 4 32 0.1 76 76 N N/A 30.24 1024 10 16.0934 N/A
3:15 am 03:15 Cloudy 39 4 32 -0.1 75 75 N N/A 30.24 1024 10 16.0934 N/A
3:35 am 03:35 Cloudy 39 4 32 0.1 76 76 N N/A 30.24 1024 10 16.0934 N/A
3:55 am 03:55 Cloudy 39 4 32 0.1 76 76 N N/A 30.24 1024 10 16.0934 N/A
4:15 am 04:15 Cloudy 39 4 32 undefined 75 75 N N/A 30.27 1025 10 16.0934 N/A
4:35 am 04:35 Cloudy 39 4 33 0.5 78 78 N N/A 30.27 1025 10 16.0934 N/A
4:55 am 04:55 Cloudy 39 4 33 0.5 78 78 N N/A 30.24 1024 10 16.0934 N/A
5:15 am 05:15 Cloudy 39 4 33 0.5 78 78 N N/A 30.24 1024 10 16.0934 N/A
5:35 am 05:35 Cloudy 39 4 33 0.5 78 78 N N/A 30.24 1024 10 16.0934 N/A
5:55 am 05:55 Cloudy 39 4 33 0.6 79 79 NE 3 6 30.24 1024 10 16.0934 N/A
6:15 am 06:15 Cloudy 39 4 33 0.4 78 78 NE 8 13 30.18 1022 10 16.0934 N/A
6:35 am 06:35 Cloudy 39 4 33 0.5 78 78 N N/A 30.24 1024 10 16.0934 N/A
6:55 am 06:55 Cloudy 39 4 33 0.5 78 78 NNW 3 6 30.24 1024 10 16.0934 N/A
7:15 am 07:15 Cloudy 39 4 33 0.6 79 79 N N/A 30.24 1024 10 16.0934 N/A
7:35 am 07:35 Cloudy 39 4 33 0.6 79 79 ENE 3 6 30.21 1023 10 16.0934 N/A
7:55 am 07:55 Cloudy 39 4 33 0.7 79 79 ENE 6 9 30.21 1023 10 16.0934 N/A
8:15 am 08:15 Cloudy 39 4 33 0.7 79 79 E 5 7 30.21 1023 10 16.0934 N/A
8:35 am 08:35 Cloudy 39 4 33 0.5 78 78 NE 3 6 30.21 1023 10 16.0934 N/A
8:55 am 08:55 Cloudy 39 4 33 0.5 78 78 NNW 3 6 30.21 1023 10 16.0934 N/A
9:15 am 09:15 Cloudy 39 4 33 0.5 78 78 N N/A 30.21 1023 10 16.0934 N/A
9:35 am 09:35 Cloudy 39 4 33 0.5 78 78 NW 3 6 30.24 1024 10 16.0934 N/A
9:55 am 09:55 Cloudy 39 4 33 0.5 78 78 NW 3 6 30.24 1024 10 16.0934 N/A
10:15 am 10:15 Cloudy 39 4 32 0.1 76 76 N N/A 30.24 1024 10 16.0934 N/A
10:35 am 10:35 Cloudy 39 4.1 33 0.3 77 77 N N/A 30.24 1024 10 16.0934 N/A
10:55 am 10:55 Cloudy 39 4 32 0.1 76 76 N N/A 30.24 1024 10 16.0934 N/A
11:15 am 11:15 Cloudy 40 4.6 33 0.6 76 76 N N/A 30.24 1024 10 16.0934 N/A
11:35 am 11:35 Cloudy 40 4.7 34 0.9 77 77 N N/A 30.24 1024 10 16.0934 N/A
11:55 am 11:55 Cloudy 40 4.7 34 0.9 77 77 W 3 6 30.24 1024 10 16.0934 N/A
12:15 pm 12:15 Cloudy 40 4.7 34 1.1 78 78 W 3 6 30.21 1023 10 16.0934 N/A
12:35 pm 12:35 Cloudy 40 4.7 35 1.4 79 79 W 5 7 30.21 1023 10 16.0934 N/A
12:55 pm 12:55 Cloudy 40 4.7 35 1.6 81 81 W 6 9 30.21 1023 10 16.0934 N/A
1:15 pm 13:15 Cloudy 40 4.7 35 1.8 82 82 N N/A 30.21 1023 10 16.0934 N/A
1:35 pm 13:35 Cloudy 40 4.7 35 1.8 82 82 W 5 7 30.15 1021 10 16.0934 N/A
1:55 pm 13:55 Cloudy 41 4.9 35 1.8 81 81 W 6 9 30.15 1021 10 16.0934 N/A
2:15 pm 14:15 Cloudy 42 5.5 35 1.9 78 78 W 10 17 30.15 1021 10 16.0934 N/A
2:35 pm 14:35 Cloudy 42 5.5 35 1.7 77 77 W 8 13 30.15 1021 10 16.0934 N/A
2:55 pm 14:55 Cloudy 42 5.5 35 1.5 76 76 WNW 7 11 30.15 1021 10 16.0934 N/A
3:15 pm 15:15 Cloudy 42 5.5 35 1.4 75 75 W 9 15 30.15 1021 10 16.0934 N/A
3:35 pm 15:35 Cloudy 40 4.7 33 0.5 74 74 W 10 17 30.15 1021 10 16.0934 N/A
3:55 pm 15:55 Cloudy 40 4.7 32 0.2 73 73 WSW 8 13 30.21 1023 10 16.0934 N/A
4:15 pm 16:15 Cloudy 40 4.7 33 0.4 74 74 W 9 15 30.21 1023 10 16.0934 N/A
4:35 pm 16:35 Cloudy 40 4.7 33 0.4 74 74 W 7 11 30.21 1023 10 16.0934 N/A
4:55 pm 16:55 Cloudy 40 4.7 32 undefined 72 72 W 12 19 30.21 1023 10 16.0934 N/A
5:15 pm 17:15 Cloudy 40 4.7 32 0.1 72 72 WNW 8 13 30.24 1024 10 16.0934 N/A
5:35 pm 17:35 Cloudy 40 4.5 32 0.1 73 73 WNW 10 17 30.24 1024 10 16.0934 N/A
5:55 pm 17:55 Cloudy 39 4 32 -0.2 74 74 WNW 8 13 30.24 1024 10 16.0934 N/A
6:15 pm 18:15 Cloudy 39 4 32 undefined 75 75 WNW 8 13 30.24 1024 10 16.0934 N/A
6:35 pm 18:35 Cloudy 39 4 31 -0.3 74 74 W 8 13 30.27 1025 10 16.0934 N/A
6:55 pm 18:55 Cloudy 39 4 31 -0.3 74 74 W 9 15 30.27 1025 10 16.0934 N/A
7:15 pm 19:15 Cloudy 39 4 31 -0.3 74 74 W 8 13 30.27 1025 10 16.0934 N/A
7:35 pm 19:35 Cloudy 39 4 31 -0.5 73 73 WNW 6 9 30.27 1025 10 16.0934 N/A
7:55 pm 19:55 Cloudy 39 4 31 -0.4 73 73 WNW 7 11 30.27 1025 10 16.0934 N/A
8:15 pm 20:15 Cloudy 39 4 31 -0.5 73 73 WNW 9 15 30.27 1025 10 16.0934 N/A
8:35 pm 20:35 Cloudy 39 4 31 -0.5 73 73 WNW 7 11 30.3 1026 10 16.0934 N/A
8:55 pm 20:55 Cloudy 39 4 31 -0.5 73 73 WNW 5 7 30.27 1025 10 16.0934 N/A
9:15 pm 21:15 Cloudy 39 4 31 -0.4 73 73 W 7 11 30.27 1025 10 16.0934 N/A
9:35 pm 21:35 Cloudy 39 4 31 -0.3 74 74 W 8 13 30.27 1025 10 16.0934 N/A
9:55 pm 21:55 Cloudy 37 3 30 -1.2 74 74 WNW 6 9 30.27 1025 10 16.0934 N/A
10:15 pm 22:15 Cloudy 37 3 30 -1.3 74 74 WNW 5 7 30.27 1025 10 16.0934 N/A
10:35 pm 22:35 Cloudy 37 2.7 29 -1.6 74 74 NW 7 11 30.27 1025 10 16.0934 N/A
10:55 pm 22:55 Cloudy 37 2.6 29 -1.6 74 74 NW 8 13 30.27 1025 10 16.0934 N/A
11:15 pm 23:15 Cloudy 37 2.6 29 -1.5 75 75 NW 7 11 30.27 1025 10 16.0934 N/A
11:35 pm 23:35 Cloudy 37 2.6 29 -1.5 75 75 WNW 7 11 30.27 1025 10 16.0934 N/A
11:55 pm 23:55 Cloudy 37 2.6 29 -1.5 75 75 NW 6 9 30.27 1025 10 16.0934 N/A

Powered by AerisWeather